[[{"header":{"parameterUnit":"m.s-1","parameterCategory":1,"la1":30.2991,"la2":30.254,"lo1":-89.0895,"lo2":-89.0444,"dy":0.0017,"dx":0.0017,"nx":28,"ny":28,"refTime":"2024-04-10T21:00:00:Z","depth":0,"parameterNumber":2,"parameterNumberName":"U-component_of_WINDS"},"data":[0,0,0,0,0,0,0,0,0,0,0,0,0,0,0,0,0,0,0,0,0,0,0,0,0,0,0,0,0,0,0,0,0,0,0,0,0,0,0,0,0,0,0,0,0,0,0,0,0,0,0,0,0,0,0,0,0,0,6.4642,6.4643,0,6.4778,6.478,6.4781,6.477,6.4768,6.4766,6.4764,6.4904,6.491,6.4916,0,0,0,0,0,0,0,0,0,0,0,0,0,6.4373,6.4378,6.4641,6.4643,6.4645,6.4778,6.478,6.4782,6.4771,6.4768,6.4766,6.4763,6.4903,6.4909,6.4916,0,0,0,0,0,0,0,0,0,0,0,0,0,6.4498,6.4379,6.4641,6.4656,6.4658,6.4778,6.478,6.4782,6.4771,6.4768,6.4765,6.4762,6.49,6.4909,6.4917,6.5031,0,0,6.4943,6.4947,0,0,0,0,0,0,0,0,6.449,6.4507,6.4652,6.4655,6.4658,6.4754,6.4737,6.4866,6.4772,6.4728,6.4764,6.4761,6.4857,6.4869,6.4901,6.5038,6.5044,6.4944,6.4949,6.4952,6.4955,0,0,0,0,0,0,0,6.4482,6.4501,6.4696,6.4654,6.4658,6.4656,6.467,6.4761,6.4808,6.4732,6.4731,6.4748,6.4858,6.4893,6.4904,6.5046,6.4943,6.4951,6.4956,6.4959,6.5286,6.529,0,0,0,0,0,0,6.447,6.4494,6.4691,6.47,6.4565,6.4663,6.4679,6.4726,6.4807,6.4817,6.475,6.4747,6.488,6.4895,6.4909,6.505,6.4952,6.496,6.4965,6.5283,6.5287,6.5291,0,0,0,0,0,0,6.4464,6.4487,6.4686,6.4597,6.4622,6.4671,6.4724,6.4731,6.4766,6.4821,6.483,6.4777,6.4878,6.4897,6.5002,6.5055,6.4964,6.4972,6.5278,6.5284,6.5289,6.5332,0,0,0,0,0,0,6.4456,6.4485,6.4529,6.4598,6.4627,6.4775,6.4727,6.4736,6.478,6.4777,6.4849,6.4858,6.4877,6.4989,6.501,6.5065,6.4978,6.5274,6.5281,6.5287,6.5326,6.5338,6.5348,0,0,0,0,0,6.4447,6.4535,6.4531,6.4555,6.4682,6.4778,6.4795,6.4816,6.4785,6.4829,6.4865,6.4855,6.5046,6.5,6.5023,6.5082,6.5271,6.5279,6.5287,6.5321,6.5336,6.5348,0,0,0,0,0,0,6.4469,6.4544,6.454,6.4653,6.471,6.4776,6.4832,6.483,6.4896,6.489,6.4914,6.493,6.5035,6.5069,6.5016,6.5198,6.5154,6.5167,6.5172,6.5187,6.5198,6.5187,6.4985,0,0,0,0,0,6.4488,6.4559,6.4621,6.4714,6.4743,6.4783,6.4826,6.4837,6.4896,6.492,6.4964,6.5022,6.5095,6.5143,6.5213,6.5331,6.5347,6.5383,6.5394,6.5403,6.5414,6.5482,6.5499,6.5317,6.5317,6.5317,0,0,6.4526,6.4575,6.4619,6.472,6.4765,6.484,6.4803,6.4883,6.4939,6.4932,6.5034,6.5068,6.5135,6.5247,6.5299,6.5278,6.5468,6.5413,6.542,6.5427,6.5492,6.5509,6.5524,6.5323,6.5322,6.5321,0,0,6.4633,6.4677,6.4761,6.4808,6.4877,6.4904,6.4924,6.4992,6.5015,6.5117,6.5115,6.5182,6.5307,6.5355,6.5396,6.5526,6.552,6.5548,6.5607,6.5672,6.5686,6.5699,6.5747,6.5764,6.5559,6.5559,6.5559,0,6.4672,6.4784,6.4805,6.4886,6.4932,6.493,6.5017,6.5061,6.5149,6.5181,6.5157,6.5316,6.536,6.5485,6.5517,6.555,6.5575,6.554,6.5683,6.5696,6.5708,6.5754,6.5772,6.5562,6.5562,6.5561,6.5561,0,6.4829,6.4907,6.4966,6.5053,6.5105,6.5188,6.5223,6.5274,6.5282,6.5311,6.5417,6.5471,6.5553,6.5584,6.5591,6.5711,6.5696,6.5677,6.5634,6.5728,6.5772,6.5789,6.5566,6.5565,6.5564,6.5564,0,0,6.4953,6.5052,6.5073,6.5114,6.5191,6.5252,6.5337,6.5418,6.5461,6.5523,6.5595,6.5703,6.5687,6.5733,6.5747,6.5804,6.5906,6.5779,6.5781,6.5802,6.6043,6.6057,6.6077,6.5903,6.5906,6.5909,6.6038,0,6.5069,6.5218,6.5241,6.5373,6.5446,6.5447,6.5521,6.5577,6.5608,6.5676,6.5709,6.5786,6.5758,6.5786,6.5843,6.5881,6.5955,6.5872,6.5971,6.5975,6.5955,6.61,6.6114,6.6233,6.6055,6.6058,6.606,0,6.5224,6.5292,6.5431,6.5501,6.5533,6.5598,6.5676,6.574,6.5805,6.5823,6.5877,6.5884,6.5973,6.5926,6.605,6.5994,6.6036,6.6061,6.6066,6.6077,6.6023,6.6115,6.6271,6.629,6.6087,6.6085,6.6083,0,6.5303,6.5428,6.5528,6.5563,6.5646,6.5693,6.573,6.5791,6.584,6.5908,6.594,6.6017,6.606,6.612,6.6149,6.6112,6.6272,6.6227,6.6291,6.629,6.6324,6.6322,6.6491,6.635,6.635,6.635,6.6349,0,6.5431,6.5516,6.5565,6.5626,6.5723,6.5749,6.5844,6.588,6.5936,6.6005,6.6011,6.6076,6.611,6.6181,6.6204,6.6304,6.6323,6.6342,6.6347,6.6342,6.6339,6.6369,6.6362,6.6355,6.6353,6.6353,6.6352,0,6.5534,6.557,6.568,6.5751,6.5771,6.5839,6.59,6.5961,6.5992,6.608,6.6102,6.6151,6.6235,6.627,6.6373,6.6389,6.6505,6.6503,6.6483,6.6485,6.6547,6.6541,6.6742,6.677,6.661,6.6612,6.6613,0,6.5614,6.568,6.5759,6.5806,6.5845,6.592,6.597,6.5999,6.6051,6.6131,6.6183,6.6267,6.6335,6.647,6.6515,6.6595,6.6596,6.6661,6.6608,6.6601,6.6599,6.6594,6.6602,6.6671,6.6672,6.6673,6.6675,0,6.5752,6.5767,6.5838,6.5917,6.5976,6.6039,6.6101,6.6139,6.6178,6.6236,6.6323,6.6376,6.6482,6.6566,6.6649,6.6688,6.6689,6.6691,6.671,6.6706,6.6692,6.6701,6.651,6.6686,6.6685,6.6684,6.6684,6.6683,6.5847,6.5906,6.5972,6.6052,6.6101,6.6159,6.6221,6.626,6.6333,6.6421,6.6434,6.6527,6.6593,6.6704,6.6747,6.6821,6.6804,6.6832,6.6839,6.6845,6.685,6.668,6.6836,6.6835,6.6835,6.6835,6.6835,0,6.5986,6.6029,6.6102,6.6189,6.6252,6.6247,6.6316,6.637,6.6451,6.6512,6.6581,6.6681,6.6764,6.6816,6.69,6.6949,6.6952,6.697,6.6967,6.6976,6.6859,6.6835,6.6967,6.6967,6.6967,6.6967,6.6967,6.6967,6.6066,6.6167,6.619,6.6317,6.636,6.6451,6.6491,6.6545,6.6594,6.6706,6.6775,6.6809,6.6867,6.6956,6.7032,6.7045,6.7076,6.7096,6.7108,6.6998,6.6984,6.6971,6.6948,6.7102,6.7102,6.722,6.7221,6.7222]},{"header":{"parameterUnit":"m.s-1","parameterCategory":1,"la1":30.2991,"la2":30.254,"lo1":-89.0895,"lo2":-89.0444,"dy":0.0017,"dx":0.0017,"nx":28,"ny":28,"refTime":"2024-04-10T21:00:00:Z","depth":0,"parameterNumber":3,"parameterNumberName":"V-component_of_WINDS"},"data":[0,0,0,0,0,0,0,0,0,0,0,0,0,0,0,0,0,0,0,0,0,0,0,0,0,0,0,0,0,0,0,0,0,0,0,0,0,0,0,0,0,0,0,0,0,0,0,0,0,0,0,0,0,0,0,0,0,0,-6.0901,-6.0902,0,-6.1003,-6.1004,-6.1005,-6.101,-6.1009,-6.1007,-6.1006,-6.1107,-6.1111,-6.1115,0,0,0,0,0,0,0,0,0,0,0,0,0,-6.0709,-6.0712,-6.0901,-6.0902,-6.0903,-6.1003,-6.1004,-6.1005,-6.101,-6.1009,-6.1007,-6.1006,-6.1106,-6.1111,-6.1115,0,0,0,0,0,0,0,0,0,0,0,0,0,-6.0799,-6.0713,-6.09,-6.0917,-6.092,-6.1002,-6.1004,-6.1006,-6.101,-6.1008,-6.1007,-6.1005,-6.1105,-6.111,-6.1116,-6.1187,0,0,-6.1133,-6.1136,0,0,0,0,0,0,0,0,-6.0794,-6.0806,-6.0914,-6.0916,-6.0919,-6.0992,-6.0973,-6.1066,-6.1011,-6.0976,-6.1006,-6.1004,-6.107,-6.1079,-6.1102,-6.1192,-6.1196,-6.1134,-6.1137,-6.114,-6.1141,0,0,0,0,0,0,0,-6.0788,-6.0802,-6.0941,-6.0915,-6.0919,-6.092,-6.0931,-6.0991,-6.1032,-6.0979,-6.0979,-6.0992,-6.1071,-6.1096,-6.1104,-6.1197,-6.1134,-6.1139,-6.1142,-6.1144,-6.1354,-6.1356,0,0,0,0,0,0,-6.0779,-6.0797,-6.0938,-6.0944,-6.0851,-6.0925,-6.0937,-6.097,-6.1031,-6.1039,-6.0993,-6.0991,-6.1087,-6.1097,-6.1107,-6.1197,-6.114,-6.1145,-6.1148,-6.1352,-6.1355,-6.1357,0,0,0,0,0,0,-6.0774,-6.0791,-6.0934,-6.0871,-6.0889,-6.093,-6.0967,-6.0973,-6.0998,-6.1042,-6.1049,-6.1011,-6.1086,-6.1099,-6.1168,-6.12,-6.1148,-6.1153,-6.135,-6.1353,-6.1356,-6.1374,0,0,0,0,0,0,-6.0769,-6.079,-6.0817,-6.0871,-6.0892,-6.0993,-6.0969,-6.0977,-6.1008,-6.1007,-6.106,-6.1068,-6.1086,-6.116,-6.1174,-6.1207,-6.1157,-6.1347,-6.1351,-6.1355,-6.1371,-6.1377,-6.1383,0,0,0,0,0,-6.0762,-6.0816,-6.0818,-6.0835,-6.0927,-6.0994,-6.1006,-6.1027,-6.1011,-6.1039,-6.1068,-6.1066,-6.1195,-6.1167,-6.1183,-6.1218,-6.1345,-6.135,-6.1355,-6.1368,-6.1376,-6.1383,0,0,0,0,0,0,-6.0762,-6.0824,-6.0826,-6.09,-6.0942,-6.0995,-6.1031,-6.1035,-6.1081,-6.1078,-6.1101,-6.1113,-6.1182,-6.1207,-6.1174,-6.1292,-6.1268,-6.1276,-6.1272,-6.1281,-6.1287,-6.1279,-6.1162,0,0,0,0,0,-6.0772,-6.0821,-6.0872,-6.0932,-6.0954,-6.0989,-6.1019,-6.1032,-6.1076,-6.1093,-6.1126,-6.1169,-6.1219,-6.1251,-6.13,-6.1375,-6.1387,-6.1407,-6.1414,-6.1419,-6.1425,-6.1469,-6.1479,-6.1373,-6.1373,-6.1373,0,0,-6.079,-6.083,-6.0859,-6.0933,-6.0968,-6.1019,-6.1003,-6.1057,-6.1096,-6.1101,-6.1168,-6.1195,-6.1244,-6.1317,-6.135,-6.1339,-6.1458,-6.1425,-6.1428,-6.1432,-6.1475,-6.1485,-6.1494,-6.1376,-6.1376,-6.1375,0,0,-6.085,-6.0884,-6.094,-6.0975,-6.1028,-6.1052,-6.1065,-6.1119,-6.1137,-6.1206,-6.1211,-6.1257,-6.1343,-6.1378,-6.1407,-6.1485,-6.1486,-6.15,-6.1532,-6.1575,-6.1583,-6.1591,-6.162,-6.163,-6.1507,-6.1507,-6.1507,0,-6.0865,-6.0943,-6.0967,-6.1023,-6.1056,-6.1065,-6.1122,-6.1155,-6.122,-6.1243,-6.123,-6.134,-6.1374,-6.1456,-6.1476,-6.1499,-6.1515,-6.1493,-6.1581,-6.1588,-6.1596,-6.1623,-6.1634,-6.1508,-6.1508,-6.1508,-6.1508,0,-6.0961,-6.1015,-6.1053,-6.1119,-6.1157,-6.1212,-6.1245,-6.128,-6.1291,-6.1316,-6.1387,-6.1428,-6.1486,-6.1507,-6.1516,-6.1592,-6.1584,-6.1576,-6.1552,-6.1607,-6.1633,-6.1644,-6.1511,-6.151,-6.151,-6.1509,0,0,-6.102,-6.1102,-6.1115,-6.1147,-6.1208,-6.125,-6.1307,-6.1366,-6.1396,-6.1442,-6.1491,-6.1565,-6.1559,-6.1593,-6.1607,-6.1644,-6.1706,-6.1632,-6.1634,-6.1645,-6.1793,-6.1798,-6.181,-6.1707,-6.1709,-6.1711,-6.1789,0,-6.1088,-6.119,-6.1215,-6.1302,-6.1354,-6.1366,-6.1416,-6.1459,-6.1485,-6.1532,-6.156,-6.1613,-6.1601,-6.1621,-6.1659,-6.169,-6.1735,-6.1685,-6.1752,-6.1755,-6.174,-6.1824,-6.1829,-6.19,-6.1799,-6.1801,-6.1802,0,-6.1178,-6.1229,-6.1322,-6.138,-6.1403,-6.1447,-6.1505,-6.155,-6.16,-6.1616,-6.1655,-6.1667,-6.1727,-6.1702,-6.1786,-6.1751,-6.1781,-6.1801,-6.1804,-6.1811,-6.1781,-6.1833,-6.1923,-6.1934,-6.1819,-6.1817,-6.1816,0,-6.1214,-6.1305,-6.1374,-6.14,-6.1468,-6.15,-6.153,-6.1578,-6.1613,-6.1663,-6.1686,-6.1742,-6.1773,-6.1816,-6.1843,-6.1822,-6.1926,-6.1902,-6.1941,-6.1941,-6.1961,-6.196,-6.2058,-6.1981,-6.1981,-6.1981,-6.198,0,-6.1286,-6.1343,-6.1391,-6.1433,-6.1498,-6.1527,-6.159,-6.162,-6.1663,-6.1712,-6.1725,-6.177,-6.1803,-6.1853,-6.1874,-6.1942,-6.1955,-6.197,-6.1975,-6.1969,-6.1967,-6.1988,-6.1983,-6.1983,-6.1983,-6.1982,-6.1982,0,-6.1335,-6.137,-6.1446,-6.1506,-6.1523,-6.1568,-6.1619,-6.1661,-6.1688,-6.175,-6.1766,-6.1809,-6.1869,-6.19,-6.1974,-6.1989,-6.2065,-6.2067,-6.2048,-6.205,-6.2088,-6.2084,-6.2203,-6.2221,-6.2131,-6.2132,-6.2133,0,-6.1379,-6.1423,-6.1489,-6.1524,-6.1555,-6.1609,-6.1646,-6.1677,-6.1714,-6.1777,-6.1811,-6.1872,-6.1923,-6.2018,-6.2055,-6.2113,-6.2116,-6.2154,-6.2125,-6.2118,-6.2118,-6.2115,-6.212,-6.2159,-6.216,-6.216,-6.2161,0,-6.1452,-6.1469,-6.1521,-6.1582,-6.1626,-6.1674,-6.1721,-6.1749,-6.1788,-6.1829,-6.1892,-6.1931,-6.2009,-6.2069,-6.213,-6.2161,-6.2168,-6.2171,-6.2183,-6.2176,-6.2164,-6.2172,-6.2062,-6.2167,-6.2166,-6.2166,-6.2166,-6.2165,-6.1501,-6.1542,-6.1596,-6.1655,-6.1695,-6.174,-6.1783,-6.1818,-6.1871,-6.1937,-6.1953,-6.2019,-6.207,-6.2154,-6.2186,-6.2239,-6.2231,-6.2248,-6.2253,-6.2256,-6.2258,-6.2157,-6.225,-6.225,-6.2249,-6.2249,-6.2249,0,-6.1576,-6.1612,-6.1666,-6.1734,-6.1782,-6.1786,-6.184,-6.1879,-6.1938,-6.1986,-6.2037,-6.211,-6.217,-6.2214,-6.2275,-6.2308,-6.2313,-6.2324,-6.2321,-6.2328,-6.2261,-6.2245,-6.2319,-6.2319,-6.2319,-6.2319,-6.2319,-6.2319,-6.162,-6.1691,-6.1714,-6.1805,-6.1841,-6.1907,-6.1938,-6.198,-6.2019,-6.21,-6.2151,-6.218,-6.2228,-6.2293,-6.2349,-6.236,-6.2382,-6.2392,-6.2404,-6.234,-6.2333,-6.2326,-6.231,-6.2397,-6.2397,-6.2467,-6.2467,-6.2468]}]]